When you browse on this site, cookies collect data to enhance your experience and personalize the content and advertising you see.
Visit our Privacy Policy to learn more. By continuing to use the site, you agree to this use of cookies and data.
  • In Czech Republic
  • List of Countries
  • For 7 days
  • Water Temperature
  • Satellite Maps
  • Weather Map
  • Weather Widgets
  • user-avatar
    Login

    Hourly Weather Sololá

    Today, 13 December, Thursday

    Time Temperature Precipitation Wind Pressure Humidity
    00:00 +12°C° 0 mm 1 mps 595 mmHg 85%
    01:00 +12°C° 0 mm 1 mps 595 mmHg 84%
    02:00 +12°C° 0 mm 1 mps 595 mmHg 84%
    03:00 +12°C° 0 mm 1 mps 594 mmHg 83%
    04:00 +12°C° 0 mm 1 mps 594 mmHg 83%
    05:00 +11°C° 0 mm 1 mps 594 mmHg 83%
    06:00 +11°C° 0 mm 1 mps 594 mmHg 83%
    07:00 +14°C° 0 mm 1 mps 596 mmHg 74%
    08:00 +16°C° 0 mm 1 mps 597 mmHg 65%
    09:00 +18°C° 0 mm 0 mps 599 mmHg 57%
    10:00 +21°C° 0 mm 1 mps 599 mmHg 55%
    11:00 +22°C° 0 mm 1 mps 599 mmHg 52%
    12:00 +23°C° 0 mm 1 mps 599 mmHg 50%
    13:00 +22°C° 0.1 mm 1 mps 598 mmHg 54%
    14:00 +21°C° 0.1 mm 1 mps 597 mmHg 58%
    15:00 +20°C° 0.1 mm 1 mps 596 mmHg 62%
    16:00 +18°C° 0 mm 1 mps 595 mmHg 70%
    17:00 +15°C° 0 mm 0 mps 595 mmHg 78%
    18:00 +13°C° 0 mm 0 mps 594 mmHg 86%
    19:00 +13°C° 0 mm 0 mps 594 mmHg 87%
    20:00 +12°C° 0 mm 0 mps 595 mmHg 88%
    21:00 +13°C° 0 mm 1 mps 595 mmHg 89%
    22:00 +13°C° 0 mm 1 mps 595 mmHg 89%
    23:00 +12°C° 0 mm 1 mps 595 mmHg 89%

    Tomorrow, 14 December, Friday

    Time Temperature Precipitation Wind Pressure Humidity
    00:00 +12°C° 0 mm 1 mps 595 mmHg 89%
    01:00 +12°C° 0 mm 1 mps 594 mmHg 88%
    02:00 +12°C° 0 mm 1 mps 594 mmHg 88%
    03:00 +12°C° 0 mm 1 mps 594 mmHg 87%
    04:00 +11°C° 0 mm 1 mps 594 mmHg 86%
    05:00 +11°C° 0 mm 1 mps 594 mmHg 85%
    06:00 +11°C° 0 mm 1 mps 594 mmHg 85%
    07:00 +14°C° 0 mm 1 mps 595 mmHg 76%
    08:00 +16°C° 0 mm 1 mps 597 mmHg 68%
    09:00 +20°C° 0 mm 1 mps 599 mmHg 59%
    10:00 +20°C° 0.1 mm 1 mps 598 mmHg 59%
    11:00 +20°C° 0.1 mm 1 mps 598 mmHg 59%
    12:00 +20°C° 0.1 mm 2 mps 598 mmHg 59%
    13:00 +19°C° 0.3 mm 2 mps 597 mmHg 62%
    14:00 +19°C° 0.3 mm 2 mps 597 mmHg 64%
    15:00 +18°C° 0.3 mm 2 mps 596 mmHg 67%
    16:00 +18°C° 0.1 mm 1 mps 595 mmHg 73%
    17:00 +15°C° 0.1 mm 1 mps 595 mmHg 80%
    18:00 +13°C° 0.1 mm 1 mps 595 mmHg 87%
    19:00 +13°C° 0 mm 1 mps 595 mmHg 87%
    20:00 +13°C° 0 mm 1 mps 595 mmHg 87%
    21:00 +13°C° 0 mm 1 mps 596 mmHg 87%
    22:00 +12°C° 0 mm 1 mps 596 mmHg 87%
    23:00 +12°C° 0 mm 1 mps 596 mmHg 86%

    Day after tomorrow, 15 December, Saturday

    Time Temperature Precipitation Wind Pressure Humidity
    00:00 +12°C° 0 mm 2 mps 596 mmHg 85%
    01:00 +12°C° 0 mm 2 mps 596 mmHg 85%
    02:00 +12°C° 0 mm 2 mps 595 mmHg 84%
    03:00 +12°C° 0 mm 2 mps 595 mmHg 83%
    04:00 +12°C° 0 mm 2 mps 595 mmHg 82%
    05:00 +12°C° 0 mm 2 mps 595 mmHg 82%
    06:00 +10°C° 0 mm 2 mps 595 mmHg 82%
    07:00 +13°C° 0 mm 2 mps 596 mmHg 77%
    08:00 +14°C° 0 mm 2 mps 598 mmHg 72%
    09:00 +15°C° 0 mm 2 mps 599 mmHg 68%
    10:00 +17°C° 0 mm 2 mps 599 mmHg 62%
    11:00 +18°C° 0 mm 2 mps 599 mmHg 56%
    12:00 +19°C° 0 mm 2 mps 600 mmHg 51%
    13:00 +19°C° 0 mm 2 mps 599 mmHg 53%
    14:00 +19°C° 0 mm 2 mps 598 mmHg 54%
    15:00 +19°C° 0 mm 2 mps 598 mmHg 56%
    16:00 +17°C° 0 mm 2 mps 597 mmHg 65%
    17:00 +14°C° 0 mm 2 mps 596 mmHg 74%
    18:00 +12°C° 0 mm 2 mps 596 mmHg 82%
    19:00 +12°C° 0 mm 2 mps 596 mmHg 80%
    20:00 +10°C° 0 mm 2 mps 596 mmHg 78%
    21:00 +10°C° 0 mm 2 mps 597 mmHg 76%
    22:00 +10°C° 0 mm 2 mps 597 mmHg 77%
    23:00 +10°C° 0 mm 2 mps 596 mmHg 77%

    16 December, Sunday

    Time Temperature Precipitation Wind Pressure Humidity
    00:00 +10°C° 0 mm 2 mps 596 mmHg 77%
    01:00 +9°C° 0 mm 2 mps 596 mmHg 77%
    02:00 +9°C° 0 mm 2 mps 595 mmHg 77%
    03:00 +9°C° 0 mm 2 mps 595 mmHg 77%
    04:00 +9°C° 0 mm 2 mps 595 mmHg 77%
    05:00 +9°C° 0 mm 2 mps 595 mmHg 77%
    06:00 +10°C° 0 mm 1 mps 596 mmHg 77%
    07:00 +12°C° 0 mm 2 mps 597 mmHg 70%
    08:00 +14°C° 0 mm 2 mps 598 mmHg 64%
    09:00 +16°C° 0 mm 2 mps 600 mmHg 57%
    10:00 +19°C° 0 mm 1 mps 600 mmHg 52%
    11:00 +20°C° 0 mm 1 mps 600 mmHg 47%
    12:00 +22°C° 0 mm 1 mps 600 mmHg 42%
    13:00 +21°C° 0 mm 2 mps 600 mmHg 45%
    14:00 +20°C° 0 mm 2 mps 599 mmHg 47%
    15:00 +20°C° 0 mm 2 mps 598 mmHg 50%
    16:00 +17°C° 0 mm 2 mps 597 mmHg 61%
    17:00 +15°C° 0 mm 2 mps 597 mmHg 72%
    18:00 +13°C° 0 mm 1 mps 596 mmHg 83%
    19:00 +12°C° 0 mm 1 mps 596 mmHg 82%
    20:00 +12°C° 0 mm 1 mps 597 mmHg 81%
    21:00 +11°C° 0 mm 1 mps 597 mmHg 80%
    22:00 +11°C° 0 mm 1 mps 597 mmHg 79%
    23:00 +11°C° 0 mm 1 mps 596 mmHg 79%

    17 December, Monday

    Time Temperature Precipitation Wind Pressure Humidity
    00:00 +11°C° 0 mm 1 mps 596 mmHg 79%
    01:00 +11°C° 0 mm 1 mps 596 mmHg 79%
    02:00 +11°C° 0 mm 1 mps 595 mmHg 79%
    03:00 +10°C° 0 mm 1 mps 595 mmHg 79%
    04:00 +10°C° 0 mm 1 mps 595 mmHg 79%
    05:00 +9°C° 0 mm 2 mps 595 mmHg 78%
    06:00 +9°C° 0 mm 2 mps 596 mmHg 78%
    07:00 +12°C° 0 mm 2 mps 597 mmHg 72%
    08:00 +14°C° 0 mm 1 mps 598 mmHg 66%
    09:00 +16°C° 0 mm 1 mps 599 mmHg 59%
    10:00 +19°C° 0 mm 1 mps 600 mmHg 55%
    11:00 +20°C° 0 mm 1 mps 600 mmHg 50%
    12:00 +22°C° 0 mm 1 mps 600 mmHg 45%
    13:00 +20°C° 0 mm 2 mps 599 mmHg 48%
    14:00 +20°C° 0 mm 2 mps 598 mmHg 51%
    15:00 +19°C° 0 mm 2 mps 597 mmHg 55%
    16:00 +17°C° 0 mm 2 mps 597 mmHg 63%
    17:00 +15°C° 0 mm 1 mps 596 mmHg 71%
    18:00 +13°C° 0 mm 1 mps 596 mmHg 79%
    19:00 +13°C° 0 mm 1 mps 596 mmHg 79%
    20:00 +12°C° 0 mm 1 mps 596 mmHg 78%
    21:00 +12°C° 0 mm 1 mps 596 mmHg 78%
    22:00 +12°C° 0 mm 1 mps 596 mmHg 78%
    23:00 +12°C° 0 mm 1 mps 596 mmHg 78%

    18 December, Tuesday

    Time Temperature Precipitation Wind Pressure Humidity
    00:00 +12°C° 0 mm 1 mps 596 mmHg 77%
    01:00 +12°C° 0.1 mm 1 mps 595 mmHg 78%
    02:00 +12°C° 0.1 mm 1 mps 595 mmHg 78%
    03:00 +11°C° 0.1 mm 1 mps 595 mmHg 79%
    04:00 +11°C° 0 mm 1 mps 595 mmHg 79%
    05:00 +11°C° 0 mm 1 mps 595 mmHg 79%
    06:00 +11°C° 0 mm 1 mps 595 mmHg 80%
    07:00 +13°C° 0 mm 1 mps 596 mmHg 74%
    08:00 +14°C° 0 mm 1 mps 597 mmHg 68%
    09:00 +16°C° 0 mm 1 mps 598 mmHg 62%
    10:00 +19°C° 0 mm 1 mps 599 mmHg 58%
    11:00 +19°C° 0 mm 2 mps 599 mmHg 54%
    12:00 +20°C° 0 mm 2 mps 599 mmHg 51%
    13:00 +20°C° 0 mm 2 mps 598 mmHg 55%
    14:00 +19°C° 0 mm 2 mps 597 mmHg 59%
    15:00 +18°C° 0 mm 2 mps 596 mmHg 63%
    16:00 +17°C° 0 mm 2 mps 596 mmHg 70%
    17:00 +15°C° 0 mm 2 mps 596 mmHg 77%
    18:00 +14°C° 0 mm 1 mps 595 mmHg 84%
    19:00 +13°C° 0.1 mm 1 mps 595 mmHg 84%
    20:00 +12°C° 0.1 mm 1 mps 596 mmHg 85%
    21:00 +12°C° 0.1 mm 1 mps 596 mmHg 85%
    22:00 +12°C° 0 mm 1 mps 596 mmHg 85%
    23:00 +12°C° 0 mm 1 mps 595 mmHg 84%
    Show more